{"data":{"norad_id":63308,"intl_designator":"2025-057B","name":"STARLINK-11575 [DTC]","alt_names":[],"object_type":"PAYLOAD","status":"ACTIVE","operator":null,"country":"US","launch_date":"2025-03-18","launch_site_code":"AFETR","launch_vehicle":null,"mission":null,"orbit_class":"UNKNOWN","rcs_meters":null,"size_class":null,"mass_kg":null,"dimensions":null,"purposes":["comms"],"wikipedia_slug":null,"has_3d_model":false,"image_url":null,"decayed_at":null,"tle_current":{"epoch":"2026-05-25T02:16:20.811648Z","epoch_age_seconds":66903,"freshness":"FRESH","line1":"1 63308U 25057B   26145.09468532  .00245938  00000+0  18543-2 0  9997","line2":"2 63308  43.0003 164.0328 0000772  93.8723 266.2233 15.70964189 69193","mean_motion":15.70964189,"eccentricity":7.72e-5,"inclination_deg":43.0003,"raan_deg":164.0328,"arg_perigee_deg":93.8723,"mean_anomaly_deg":266.2233,"bstar":0.0018543,"rev_number":6919,"period_min":91.663451661278,"perigee_km":355.62024335349,"apogee_km":356.6600157423,"semimajor_km":6734.2771295479,"source":"CELESTRAK","updated_at":"2026-05-25T13:38:19.953985Z"}}}